Location: Wawayanda State Park
(41.1833°N, 74.4333°W)
Time: 21:01:22
(UTC-04:00)

RESURS DK-1 - Visible Passes

Search period start: 21 April 2018 00:00
Search period end: 01 May 2018 00:00
Orbit: 554 x 565 km, 69.9° (Epoch: 21 April)

Date Brightness Start Highest point End Pass type
(mag) Time Alt. Az. Time Alt. Az. Time Alt. Az.
21 Apr 5.1 23:45:08 10° NNW 23:46:14 18° NNW 23:46:14 18° NNW visible
22 Apr 4.8 22:07:18 10° NNE 22:08:53 13° NE 22:08:53 13° NE visible
22 Apr 5.0 23:43:38 10° NNW 23:44:48 18° NNW 23:44:48 18° NNW visible
23 Apr 4.5 22:05:10 10° NNE 22:07:28 16° NE 22:07:28 16° NE visible
23 Apr 5.0 23:42:11 10° NW 23:43:23 18° NW 23:43:23 18° NW visible
24 Apr 4.2 22:03:15 10° N 22:06:05 21° NE 22:06:05 21° NE visible
24 Apr 5.0 23:40:48 10° NW 23:41:59 17° NW 23:41:59 17° NW visible
25 Apr 3.8 22:01:26 10° N 22:04:43 27° NE 22:04:43 27° NE visible
25 Apr 5.0 23:39:31 10° NW 23:40:37 16° WNW 23:40:37 16° WNW visible
26 Apr 3.3 21:59:42 10° N 22:03:23 35° NE 22:03:23 35° NE visible
26 Apr 5.1 23:38:22 10° WNW 23:39:18 14° WNW 23:39:18 14° WNW visible
27 Apr 2.8 21:58:01 10° NNW 22:02:04 48° ENE 22:02:05 48° ENE visible
27 Apr 5.2 23:37:28 10° WNW 23:38:00 12° WNW 23:38:00 12° WNW visible
28 Apr 2.3 21:56:24 10° NNW 22:00:33 66° ENE 22:00:50 64° E visible
29 Apr 4.7 20:19:43 10° NE 20:20:19 10° NE 20:20:55 10° NE visible
29 Apr 2.2 21:54:50 10° NNW 21:59:01 89° WSW 21:59:37 64° SSE visible
30 Apr 2.6 21:53:20 10° NNW 21:57:26 65° WSW 21:58:27 47° S visible
